Location: ???? ??????? ????
(31.2176°N, 31.6797°E)
Time: 12:27:08
(UTC+00:00)

Helios 1A Rocket - Pass Details

Date: 29 October 2020
Orbit: 562 x 587 km, 98.3° (Epoch: 26 November)

Event Time Altitude Azimuth Distance (km) Brightness Sun altitude
Rises 15:33:36 0° 132° (SE) 2,796 6.1 -6.4°
Reaches altitude 10° 15:36:18 10° 113° (ESE) 1,897 5.1 -6.9°
Maximum altitude 15:39:06 18° 70° (ENE) 1,451 4.3 -7.5°
Drops below altitude 10° 15:41:53 10° 27° (NNE) 1,896 5.2 -8.1°
Sets 15:44:34 0° 8° (N) 2,794 6.2 -8.7°
